#timestamp,LO_Frequency,Hit,StdDev 
1633374015.4,286047001.2,N
1633374035.3,286046998.9,N
1633374055.1,286046994.9,N
1633374075.9,286046993.6,Y
1633374095.7,286046996.3,P
1633374115.5,286046994.4,P
1633374135.4,286046992.2,P
1633374155.2,286046991.8,Y
1633374175.1,286046998.5,P
1633374176.0,286046998.5,N
1633374195.8,286047000.2,N
1633374215.6,286047002.1,N
1633374235.5,286047003.4,N
1633374255.3,286047003.2,N
1633374275.2,286047003.9,N
1633374295.9,286047003.3,N
1633374315.7,286047003.2,N
1633374335.6,286047002.9,N
1633374355.4,286047004.5,N
1633374375.3,286047007.1,N
1633374395.1,286047005.0,N
1633374396.0,286047005.0,N
1633374415.8,286047003.0,N
1633374435.7,286047002.9,N
1633374455.5,286047004.7,N
1633374475.3,286047006.8,N
1633374495.2,286047006.2,N
1633374515.0,286047008.6,N
1633374515.9,286047008.6,N
1633374535.8,286047010.4,Y
1633374555.6,286047006.9,P
1633374575.4,286047007.2,P
1633374595.3,286047007.3,P
1633374615.1,286047005.8,Y
1633374635.9,286047000.3,P
1633374655.7,286047000.4,N
1633374675.5,286047000.2,N
1633374695.4,286046999.8,N
1633374715.2,286047000.5,N
1633374735.1,286047002.8,N
1633374736.0,286047002.8,N
1633374755.8,286047004.3,N
1633374775.6,286047001.4,N
1633374795.5,286047002.2,N
1633374815.3,286047002.2,N
1633374835.1,286047001.8,N
1633374855.9,286046999.8,N
1633374875.7,286047002.7,N
1633374895.6,286047000.6,N
1633374915.4,286047001.0,N
1633374935.2,286047000.5,N
1633374955.1,286046998.3,N
1633374956.0,286046998.3,N
1633374975.8,286047000.7,N
1633374995.6,286047001.0,N
1633375015.5,286047000.1,N
1633375035.3,286047002.4,N
1633375055.2,286047001.7,N
1633375075.9,286047001.1,N
1633375095.7,286047000.8,N
1633375115.6,286047000.7,N
1633375135.4,286047001.0,N
1633375155.3,286047000.5,N
1633375175.1,286046999.8,N
1633375195.8,286047002.1,N
1633375215.7,286046998.2,N
1633375235.5,286046996.6,N
1633375255.4,286046997.1,N
1633375275.2,286046997.2,N
1633375295.0,286046995.4,N
1633375295.9,286046995.4,N
1633375315.8,286046995.7,N
1633375335.6,286046997.1,N
1633375355.4,286046994.9,N
1633375375.3,286046995.6,N
1633375395.1,286046996.6,N
1633375415.9,286046999.0,N
1633375435.7,286046998.8,N
1633375455.5,286046998.7,N
1633375475.4,286046996.6,N
1633375495.2,286046997.4,N
1633375515.0,286046994.9,N
1633375516.0,286046994.9,N
1633375535.8,286046997.7,N
1633375555.6,286046997.7,N
1633375575.5,286046995.0,N
1633375595.3,286046995.0,N
1633375615.1,286046995.3,N
1633375635.9,286046995.2,N
1633375655.7,286046995.8,N
1633375675.6,286046996.1,N
1633375695.4,286046995.6,N
1633375715.2,286046995.6,N
1633375735.1,286046993.4,Y
1633375736.0,286046993.4,P
1633375755.8,286046996.8,N
1633375775.7,286046999.6,N
1633375795.5,286047001.1,N
1633375815.3,286046999.9,N
1633375835.2,286047000.5,N
1633375855.9,286047002.8,N
1633375875.7,286047002.0,N
1633375895.6,286046999.7,N
1633375915.4,286047002.5,N
1633375935.3,286047000.2,N
1633375985.1,286046996.9,E
1633375995.0,286046998.2,N
1633375995.9,286046998.2,P
1633376015.8,286047000.8,P
1633376035.6,286046998.6,N
1633376055.5,286046996.5,Y
1633376075.3,286046998.2,P
1633376095.1,286046999.5,N
1633376115.9,286046995.0,P
1633376135.7,286046995.8,N
1633376155.5,286046995.8,N
1633376175.4,286046996.0,N
1633376195.2,286046995.7,N
1633376215.1,286046993.4,Y
1633376216.0,286046993.4,P
1633376235.8,286046997.1,N
1633376255.7,286046997.6,N
1633376275.5,286046995.4,N
1633376295.3,286046997.6,N
1633376315.2,286046997.9,N
1633376335.0,286046995.4,Y
1633376335.9,286046995.4,P
1633376355.8,286046998.9,N
1633376375.6,286046998.4,N
1633376395.4,286047001.1,N
1633376415.3,286046998.6,N
1633376435.1,286046998.5,N
1633376455.9,286046999.0,N
1633376475.7,286046996.9,N
1633376495.5,286046995.0,Y
1633376515.4,286046999.5,P
1633376535.2,286046997.1,P
1633376555.0,286046997.7,N
1633376555.9,286046997.7,N
1633376575.8,286046996.5,Y
1633376595.6,286047000.8,P
1633376615.5,286046998.1,N
1633376635.3,286047000.8,N
1633376655.1,286047000.7,N
1633376675.9,286047000.4,N
1633376695.7,286047001.0,N
1633376715.6,286047001.0,N
1633376735.4,286047001.1,N
1633376755.2,286046998.7,N
1633376775.1,286047001.2,N
1633376776.0,286047001.2,N
1633376795.8,286047000.8,N
1633376815.6,286046998.2,N
1633376835.5,286046999.1,N
1633376855.3,286046998.6,N
1633376875.2,286046998.7,N
1633376895.9,286046999.6,N
1633376915.7,286046997.5,N
1633376935.6,286046997.0,N
1633376955.4,286046996.5,N
1633376975.3,286046999.3,N
1633376995.1,286046998.3,N
1633376996.0,286046998.3,N
1633377015.8,286046998.4,N
1633377035.7,286046997.0,N
1633377055.5,286046996.5,N
1633377075.4,286046999.1,N
1633377095.2,286046998.8,N
1633377115.0,286047000.7,N
1633377115.9,286047000.7,N
1633377135.8,286047001.2,N
1633377155.6,286046998.4,N
1633377175.4,286046996.5,N
1633377195.3,286046996.7,N
1633377215.1,286046997.8,N
1633377235.9,286046995.3,N
1633377255.7,286046997.8,N
1633377275.5,286046996.5,N
1633377295.4,286046999.6,N
1633377315.2,286046999.5,N
1633377335.1,286046996.6,N
1633377336.0,286046996.6,N
1633377355.8,286046999.5,N
1633377375.6,286047001.1,N
1633377395.5,286047000.5,N
1633377415.3,286046998.4,N
1633377435.1,286046996.5,N
1633377455.9,286046996.5,N
1633377475.7,286046997.7,N
1633377495.6,286046997.3,N
1633377515.4,286046999.5,N
1633377535.2,286046998.7,N
1633377555.1,286046998.2,N
1633377556.0,286046998.2,N
1633377575.8,286047000.5,N
1633377595.6,286046998.2,N
